Time,TemperatureF,DewpointF,PressureIn,WindDirection,WindDirectionDegrees,WindSpeedMPH,WindSpeedGustMPH,Humidity,HourlyPrecipIn,Conditions,Clouds,dailyrainin,SoftwareType,DateUTC
2013-06-01 00:00:00,78.9,73.3,29.90,SE,139,2.3,8.1,83,0.00,,,1.01,VWS V14.01,2013-06-01 05:00:00,
2013-06-01 00:13:00,78.6,73.0,29.90,SE,129,2.3,9.2,83,0.00,,,0.00,VWS V14.01,2013-06-01 05:13:00,
2013-06-01 00:15:00,78.6,73.0,29.90,SE,129,2.3,9.2,83,0.00,,,0.00,VWS V14.01,2013-06-01 05:15:00,
2013-06-01 00:28:00,78.0,73.1,29.91,SSW,203,2.3,10.3,85,0.00,,,0.00,VWS V14.01,2013-06-01 05:28:00,
2013-06-01 00:30:00,78.0,73.1,29.91,SSW,203,2.3,10.3,85,0.00,,,0.00,VWS V14.01,2013-06-01 05:30:00,
2013-06-01 00:43:00,77.8,72.9,29.90,ENE,63,4.6,11.5,85,0.00,,,0.00,VWS V14.01,2013-06-01 05:43:00,
2013-06-01 00:45:00,77.8,72.9,29.90,ENE,63,4.6,11.5,85,0.00,,,0.00,VWS V14.01,2013-06-01 05:45:00,
2013-06-01 00:58:00,77.5,72.6,29.90,SSE,153,4.6,9.2,85,0.00,,,0.00,VWS V14.01,2013-06-01 05:58:00,
2013-06-01 01:00:00,77.5,72.6,29.90,SSE,153,4.6,9.2,85,0.00,,,0.00,VWS V14.01,2013-06-01 06:00:00,
2013-06-01 01:13:00,77.2,72.7,29.89,SSW,193,5.8,9.2,86,0.00,,,0.00,VWS V14.01,2013-06-01 06:13:00,
2013-06-01 01:15:00,77.2,72.7,29.89,SSW,193,5.8,9.2,86,0.00,,,0.00,VWS V14.01,2013-06-01 06:15:00,
2013-06-01 01:28:00,76.9,72.7,29.89,SE,130,1.1,10.3,87,0.00,,,0.00,VWS V14.01,2013-06-01 06:28:00,
2013-06-01 01:30:00,76.9,72.7,29.89,SE,130,1.1,10.3,87,0.00,,,0.00,VWS V14.01,2013-06-01 06:30:00,
2013-06-01 01:43:00,76.5,72.7,29.89,SE,124,3.4,12.6,88,0.00,,,0.00,VWS V14.01,2013-06-01 06:43:00,
2013-06-01 01:45:00,76.5,72.7,29.89,SE,124,3.4,12.6,88,0.00,,,0.00,VWS V14.01,2013-06-01 06:45:00,
2013-06-01 01:58:00,76.2,72.7,29.88,SSE,148,4.6,11.5,89,0.00,,,0.00,VWS V14.01,2013-06-01 06:58:00,
2013-06-01 02:00:00,76.2,72.7,29.88,SSE,148,4.6,11.5,89,0.00,,,0.00,VWS V14.01,2013-06-01 07:00:00,
2013-06-01 02:13:00,75.9,72.8,29.87,SSW,202,4.6,11.5,90,0.00,,,0.00,VWS V14.01,2013-06-01 07:13:00,
2013-06-01 02:15:00,75.9,72.8,29.87,SSW,202,4.6,11.5,90,0.00,,,0.00,VWS V14.01,2013-06-01 07:15:00,
2013-06-01 02:28:00,75.8,72.7,29.87,South,186,8.1,12.6,90,0.00,,,0.00,VWS V14.01,2013-06-01 07:28:00,
2013-06-01 02:30:00,75.8,72.7,29.87,South,186,8.1,12.6,90,0.00,,,0.00,VWS V14.01,2013-06-01 07:30:00,
2013-06-01 02:43:00,75.6,72.5,29.88,ESE,108,12.6,12.6,90,0.00,,,0.00,VWS V14.01,2013-06-01 07:43:00,
2013-06-01 02:45:00,75.6,72.5,29.88,ESE,108,12.6,12.6,90,0.00,,,0.00,VWS V14.01,2013-06-01 07:45:00,
2013-06-01 02:58:00,75.5,72.4,29.87,SSE,165,2.3,12.6,90,0.00,,,0.00,VWS V14.01,2013-06-01 07:58:00,
2013-06-01 03:00:00,75.5,72.4,29.87,SSE,165,2.3,12.6,90,0.00,,,0.00,VWS V14.01,2013-06-01 08:00:00,
2013-06-01 03:13:00,75.4,72.3,29.87,ESE,116,3.4,10.3,90,0.00,,,0.00,VWS V14.01,2013-06-01 08:13:00,
2013-06-01 03:15:00,75.4,72.3,29.87,ESE,116,3.4,10.3,90,0.00,,,0.00,VWS V14.01,2013-06-01 08:15:00,
2013-06-01 03:28:00,75.3,72.2,29.86,SSE,162,9.2,11.5,90,0.00,,,0.00,VWS V14.01,2013-06-01 08:28:00,
2013-06-01 03:30:00,75.3,72.2,29.86,SSE,162,9.2,11.5,90,0.00,,,0.00,VWS V14.01,2013-06-01 08:30:00,
2013-06-01 03:43:00,75.3,72.2,29.86,SSW,210,1.1,13.8,90,0.00,,,0.00,VWS V14.01,2013-06-01 08:43:00,
2013-06-01 03:45:00,75.3,72.2,29.86,SSW,210,1.1,13.8,90,0.00,,,0.00,VWS V14.01,2013-06-01 08:45:00,
2013-06-01 03:58:00,75.2,72.1,29.86,SW,235,2.3,12.6,90,0.00,,,0.00,VWS V14.01,2013-06-01 08:58:00,
2013-06-01 04:00:00,75.2,72.1,29.86,SW,235,2.3,12.6,90,0.00,,,0.00,VWS V14.01,2013-06-01 09:00:00,
2013-06-01 04:13:00,75.1,72.0,29.86,SW,214,6.9,8.1,90,0.00,,,0.00,VWS V14.01,2013-06-01 09:13:00,
2013-06-01 04:15:00,75.1,72.0,29.86,SW,214,6.9,8.1,90,0.00,,,0.00,VWS V14.01,2013-06-01 09:15:00,
2013-06-01 04:28:00,74.9,71.8,29.86,SSW,210,1.1,10.3,90,0.00,,,0.00,VWS V14.01,2013-06-01 09:28:00,
2013-06-01 04:30:00,74.9,71.8,29.86,SSW,210,1.1,10.3,90,0.00,,,0.00,VWS V14.01,2013-06-01 09:30:00,
2013-06-01 04:43:00,74.8,72.0,29.87,ESE,106,1.1,6.9,91,0.00,,,0.00,VWS V14.01,2013-06-01 09:43:00,
2013-06-01 04:45:00,74.8,72.0,29.87,ESE,106,1.1,6.9,91,0.00,,,0.00,VWS V14.01,2013-06-01 09:45:00,
2013-06-01 04:58:00,74.6,71.8,29.87,SW,229,1.1,5.8,91,0.00,,,0.00,VWS V14.01,2013-06-01 09:58:00,
2013-06-01 05:00:00,74.6,71.8,29.87,SW,229,1.1,5.8,91,0.00,,,0.00,VWS V14.01,2013-06-01 10:00:00,
2013-06-01 05:13:00,74.3,71.5,29.87,East,92,3.4,5.8,91,0.00,,,0.00,VWS V14.01,2013-06-01 10:13:00,
2013-06-01 05:15:00,74.3,71.5,29.87,East,92,3.4,5.8,91,0.00,,,0.00,VWS V14.01,2013-06-01 10:15:00,
2013-06-01 05:28:00,74.1,71.6,29.88,SE,141,1.1,5.8,92,0.00,,,0.00,VWS V14.01,2013-06-01 10:28:00,
2013-06-01 05:30:00,74.1,71.6,29.88,SE,141,1.1,5.8,92,0.00,,,0.00,VWS V14.01,2013-06-01 10:30:00,
2013-06-01 05:43:00,74.2,71.7,29.88,SSW,201,1.1,6.9,92,0.00,,,0.00,VWS V14.01,2013-06-01 10:43:00,
2013-06-01 05:45:00,74.2,71.7,29.88,SSW,201,1.1,6.9,92,0.00,,,0.00,VWS V14.01,2013-06-01 10:45:00,
2013-06-01 05:58:00,74.4,71.6,29.89,East,100,4.6,8.1,91,0.00,,,0.00,VWS V14.01,2013-06-01 10:58:00,
2013-06-01 06:00:00,74.4,71.6,29.89,East,100,4.6,8.1,91,0.00,,,0.00,VWS V14.01,2013-06-01 11:00:00,
2013-06-01 06:13:00,74.5,71.7,29.88,South,169,2.3,10.3,91,0.00,,,0.00,VWS V14.01,2013-06-01 11:13:00,
2013-06-01 06:15:00,74.5,71.7,29.88,South,169,2.3,10.3,91,0.00,,,0.00,VWS V14.01,2013-06-01 11:15:00,
2013-06-01 06:28:00,74.6,71.8,29.89,SW,214,1.1,9.2,91,0.00,,,0.00,VWS V14.01,2013-06-01 11:28:00,
2013-06-01 06:30:00,74.6,71.8,29.89,SW,214,1.1,9.2,91,0.00,,,0.00,VWS V14.01,2013-06-01 11:30:00,
2013-06-01 06:43:00,74.9,71.8,29.89,ESE,119,2.3,8.1,90,0.00,,,0.00,VWS V14.01,2013-06-01 11:43:00,
2013-06-01 06:45:00,74.9,71.8,29.89,ESE,119,2.3,8.1,90,0.00,,,0.00,VWS V14.01,2013-06-01 11:45:00,
2013-06-01 06:58:00,75.4,71.9,29.90,SW,218,3.4,9.2,89,0.00,,,0.00,VWS V14.01,2013-06-01 11:58:00,
2013-06-01 07:00:00,75.4,71.9,29.90,SW,218,3.4,9.2,89,0.00,,,0.00,VWS V14.01,2013-06-01 12:00:00,
2013-06-01 07:13:00,75.5,72.0,29.90,South,189,2.3,10.3,89,0.00,,,0.00,VWS V14.01,2013-06-01 12:13:00,
2013-06-01 07:15:00,75.5,72.0,29.90,South,189,2.3,10.3,89,0.00,,,0.00,VWS V14.01,2013-06-01 12:15:00,
2013-06-01 07:28:00,75.8,72.0,29.90,ESE,121,3.4,8.1,88,0.00,,,0.00,VWS V14.01,2013-06-01 12:28:00,
2013-06-01 07:30:00,75.8,72.0,29.90,ESE,121,3.4,8.1,88,0.00,,,0.00,VWS V14.01,2013-06-01 12:30:00,
2013-06-01 07:43:00,76.0,72.2,29.91,SW,217,1.1,9.2,88,0.00,,,0.00,VWS V14.01,2013-06-01 12:43:00,
2013-06-01 07:45:00,76.0,72.2,29.91,SW,217,1.1,9.2,88,0.00,,,0.00,VWS V14.01,2013-06-01 12:45:00,
2013-06-01 07:58:00,76.3,72.2,29.91,South,180,3.4,8.1,87,0.00,,,0.00,VWS V14.01,2013-06-01 12:58:00,
2013-06-01 08:00:00,76.3,72.2,29.91,South,180,3.4,8.1,87,0.00,,,0.00,VWS V14.01,2013-06-01 13:00:00,
2013-06-01 08:13:00,76.5,72.3,29.91,SSE,148,2.3,8.1,87,0.00,,,0.00,VWS V14.01,2013-06-01 13:13:00,
2013-06-01 08:15:00,76.5,72.3,29.91,SSE,148,2.3,8.1,87,0.00,,,0.00,VWS V14.01,2013-06-01 13:15:00,
2013-06-01 08:28:00,76.7,72.5,29.90,SW,224,3.4,11.5,87,0.00,,,0.00,VWS V14.01,2013-06-01 13:28:00,
2013-06-01 08:30:00,76.7,72.5,29.90,SW,224,3.4,11.5,87,0.00,,,0.00,VWS V14.01,2013-06-01 13:30:00,
2013-06-01 08:43:00,77.0,72.5,29.91,SSE,160,6.9,9.2,86,0.00,,,0.00,VWS V14.01,2013-06-01 13:43:00,
2013-06-01 08:45:00,77.0,72.5,29.91,SSE,160,6.9,9.2,86,0.00,,,0.00,VWS V14.01,2013-06-01 13:45:00,
2013-06-01 08:58:00,77.5,72.6,29.92,South,190,6.9,10.3,85,0.00,,,0.00,VWS V14.01,2013-06-01 13:58:00,
2013-06-01 09:00:00,77.5,72.6,29.92,South,190,6.9,10.3,85,0.00,,,0.00,VWS V14.01,2013-06-01 14:00:00,
2013-06-01 09:13:00,77.9,72.7,29.91,SSE,152,2.3,13.8,84,0.00,,,0.00,VWS V14.01,2013-06-01 14:13:00,
2013-06-01 09:15:00,77.9,72.7,29.91,SSE,152,2.3,13.8,84,0.00,,,0.00,VWS V14.01,2013-06-01 14:15:00,
2013-06-01 09:28:00,78.1,72.5,29.92,SSE,167,2.3,13.8,83,0.00,,,0.00,VWS V14.01,2013-06-01 14:28:00,
2013-06-01 09:30:00,78.1,72.5,29.92,SSE,167,2.3,13.8,83,0.00,,,0.00,VWS V14.01,2013-06-01 14:30:00,
2013-06-01 09:43:00,78.6,73.0,29.92,SW,221,5.8,11.5,83,0.00,,,0.00,VWS V14.01,2013-06-01 14:43:00,
2013-06-01 09:45:00,78.6,73.0,29.92,SW,221,5.8,11.5,83,0.00,,,0.00,VWS V14.01,2013-06-01 14:45:00,
2013-06-01 09:58:00,79.1,72.8,29.92,SW,226,5.8,13.8,81,0.00,,,0.00,VWS V14.01,2013-06-01 14:58:00,
2013-06-01 10:00:00,79.1,72.8,29.92,SW,226,5.8,13.8,81,0.00,,,0.00,VWS V14.01,2013-06-01 15:00:00,
2013-06-01 10:13:00,79.2,72.1,29.93,SSW,210,11.5,14.9,79,0.00,,,0.00,VWS V14.01,2013-06-01 15:13:00,
2013-06-01 10:15:00,79.2,72.1,29.93,SSW,210,11.5,14.9,79,0.00,,,0.00,VWS V14.01,2013-06-01 15:15:00,
2013-06-01 10:28:00,80.5,73.4,29.92,South,170,8.1,17.2,79,0.00,,,0.00,VWS V14.01,2013-06-01 15:28:00,
2013-06-01 10:30:00,80.5,73.4,29.92,South,170,8.1,17.2,79,0.00,,,0.00,VWS V14.01,2013-06-01 15:30:00,
2013-06-01 10:43:00,81.5,73.2,29.92,SSE,167,10.3,14.9,76,0.00,,,0.00,VWS V14.01,2013-06-01 15:43:00,
2013-06-01 10:45:00,81.5,73.2,29.92,SSE,167,10.3,14.9,76,0.00,,,0.00,VWS V14.01,2013-06-01 15:45:00,
2013-06-01 10:58:00,81.8,73.1,29.92,South,188,4.6,18.4,75,0.00,,,0.00,VWS V14.01,2013-06-01 15:58:00,
2013-06-01 11:00:00,81.8,73.1,29.92,South,188,4.6,18.4,75,0.00,,,0.00,VWS V14.01,2013-06-01 16:00:00,
2013-06-01 11:13:00,82.8,72.9,29.92,South,187,4.6,20.7,72,0.00,,,0.00,VWS V14.01,2013-06-01 16:13:00,
2013-06-01 11:15:00,82.8,72.9,29.92,South,187,4.6,20.7,72,0.00,,,0.00,VWS V14.01,2013-06-01 16:15:00,
2013-06-01 11:28:00,82.7,73.2,29.92,SE,138,5.8,16.1,73,0.00,,,0.00,VWS V14.01,2013-06-01 16:28:00,
2013-06-01 11:30:00,82.7,73.2,29.92,SE,138,5.8,16.1,73,0.00,,,0.00,VWS V14.01,2013-06-01 16:30:00,
2013-06-01 11:43:00,82.7,74.0,29.91,SSW,205,3.4,13.8,75,0.00,,,0.00,VWS V14.01,2013-06-01 16:43:00,
2013-06-01 11:45:00,82.7,74.0,29.91,SSW,205,3.4,13.8,75,0.00,,,0.00,VWS V14.01,2013-06-01 16:45:00,
2013-06-01 11:58:00,83.3,72.5,29.95,NNW,335,6.9,13.8,70,0.00,,,0.00,VWS V14.01,2013-06-01 16:58:00,
2013-06-01 12:00:00,83.3,72.5,29.95,NNW,335,6.9,13.8,70,0.00,,,0.00,VWS V14.01,2013-06-01 17:00:00,
2013-06-01 12:13:00,71.3,64.8,29.97,NNE,15,2.3,12.6,80,0.01,,,0.01,VWS V14.01,2013-06-01 17:13:00,
2013-06-01 12:15:00,71.3,64.8,29.97,NNE,15,2.3,12.6,80,0.01,,,0.01,VWS V14.01,2013-06-01 17:15:00,
2013-06-01 12:28:00,67.8,64.4,29.97,NE,40,1.1,5.8,89,0.33,,,0.33,VWS V14.01,2013-06-01 17:28:00,
2013-06-01 12:30:00,67.8,64.4,29.97,NE,40,1.1,5.8,89,0.33,,,0.33,VWS V14.01,2013-06-01 17:30:00,
2013-06-01 12:43:00,66.2,63.8,29.97,SSE,165,0.0,5.8,92,0.45,,,0.45,VWS V14.01,2013-06-01 17:43:00,
2013-06-01 12:45:00,66.2,63.8,29.97,SSE,165,0.0,5.8,92,0.45,,,0.45,VWS V14.01,2013-06-01 17:45:00,
2013-06-01 12:58:00,66.0,64.2,29.97,NW,316,0.0,3.4,94,0.54,,,0.54,VWS V14.01,2013-06-01 17:58:00,
2013-06-01 13:00:00,66.0,64.2,29.97,NW,316,0.0,3.4,94,0.54,,,0.54,VWS V14.01,2013-06-01 18:00:00,
2013-06-01 13:13:00,66.0,64.2,29.97,North,4,0.0,1.1,94,0.55,,,0.55,VWS V14.01,2013-06-01 18:13:00,
2013-06-01 13:15:00,66.0,64.2,29.97,North,4,0.0,1.1,94,0.55,,,0.55,VWS V14.01,2013-06-01 18:15:00,
2013-06-01 13:28:00,66.6,65.1,29.95,ENE,77,1.1,4.6,95,0.54,,,0.55,VWS V14.01,2013-06-01 18:28:00,
2013-06-01 13:30:00,66.6,65.1,29.95,ENE,77,1.1,4.6,95,0.54,,,0.55,VWS V14.01,2013-06-01 18:30:00,
2013-06-01 13:43:00,67.1,65.6,29.95,ESE,108,0.0,3.4,95,0.24,,,0.57,VWS V14.01,2013-06-01 18:43:00,
2013-06-01 13:45:00,67.1,65.6,29.95,ESE,108,0.0,3.4,95,0.24,,,0.57,VWS V14.01,2013-06-01 18:45:00,
2013-06-01 13:58:00,67.5,65.7,29.94,ESE,103,3.4,3.4,94,0.12,,,0.57,VWS V14.01,2013-06-01 18:58:00,
2013-06-01 14:00:00,67.5,65.7,29.94,ESE,103,3.4,3.4,94,0.12,,,0.57,VWS V14.01,2013-06-01 19:00:00,
2013-06-01 14:13:00,67.5,65.7,29.94,East,98,1.1,4.6,94,0.05,,,0.59,VWS V14.01,2013-06-01 19:13:00,
2013-06-01 14:15:00,67.5,65.7,29.94,East,98,1.1,4.6,94,0.05,,,0.59,VWS V14.01,2013-06-01 19:15:00,
2013-06-01 14:28:00,67.4,65.9,29.92,SW,232,0.0,5.8,95,0.08,,,0.63,VWS V14.01,2013-06-01 19:28:00,
2013-06-01 14:30:00,67.4,65.9,29.92,SW,232,0.0,5.8,95,0.08,,,0.63,VWS V14.01,2013-06-01 19:30:00,
2013-06-01 14:43:00,67.5,66.0,29.92,SSW,211,1.1,6.9,95,0.09,,,0.64,VWS V14.01,2013-06-01 19:43:00,
2013-06-01 14:45:00,67.5,66.0,29.92,SSW,211,1.1,6.9,95,0.09,,,0.64,VWS V14.01,2013-06-01 19:45:00,
2013-06-01 14:58:00,67.9,66.4,29.91,SSE,148,2.3,6.9,95,0.07,,,0.64,VWS V14.01,2013-06-01 19:58:00,
2013-06-01 15:00:00,67.9,66.4,29.91,SSE,148,2.3,6.9,95,0.07,,,0.64,VWS V14.01,2013-06-01 20:00:00,
2013-06-01 15:13:00,68.5,67.0,29.89,SE,135,1.1,5.8,95,0.08,,,0.65,VWS V14.01,2013-06-01 20:13:00,
2013-06-01 15:15:00,68.5,67.0,29.89,SE,135,1.1,5.8,95,0.08,,,0.65,VWS V14.01,2013-06-01 20:15:00,
2013-06-01 15:28:00,69.1,67.3,29.88,ESE,118,2.3,5.8,94,0.06,,,0.65,VWS V14.01,2013-06-01 20:28:00,
2013-06-01 15:30:00,69.1,67.3,29.88,ESE,118,2.3,5.8,94,0.06,,,0.65,VWS V14.01,2013-06-01 20:30:00,
2013-06-01 15:43:00,69.4,67.6,29.87,ESE,122,1.1,4.6,94,0.02,,,0.65,VWS V14.01,2013-06-01 20:43:00,
2013-06-01 15:45:00,69.4,67.6,29.87,ESE,122,1.1,4.6,94,0.02,,,0.65,VWS V14.01,2013-06-01 20:45:00,
2013-06-01 15:58:00,69.3,67.2,29.86,ESE,116,2.3,9.2,93,0.01,,,0.65,VWS V14.01,2013-06-01 20:58:00,
2013-06-01 16:00:00,69.3,67.2,29.86,ESE,116,2.3,9.2,93,0.01,,,0.65,VWS V14.01,2013-06-01 21:00:00,
2013-06-01 16:13:00,69.7,67.6,29.85,SSW,211,2.3,4.6,93,0.01,,,0.65,VWS V14.01,2013-06-01 21:13:00,
2013-06-01 16:15:00,69.7,67.6,29.85,SSW,211,2.3,4.6,93,0.01,,,0.65,VWS V14.01,2013-06-01 21:15:00,
2013-06-01 16:28:00,70.3,67.9,29.85,SSE,168,2.3,4.6,92,0.00,,,0.65,VWS V14.01,2013-06-01 21:28:00,
2013-06-01 16:30:00,70.3,67.9,29.85,SSE,168,2.3,4.6,92,0.00,,,0.65,VWS V14.01,2013-06-01 21:30:00,
2013-06-01 16:43:00,70.5,68.1,29.85,SSE,152,2.3,5.8,92,0.00,,,0.65,VWS V14.01,2013-06-01 21:43:00,
2013-06-01 16:45:00,70.5,68.1,29.85,SSE,152,2.3,5.8,92,0.00,,,0.65,VWS V14.01,2013-06-01 21:45:00,
2013-06-01 16:58:00,70.6,67.8,29.86,SSW,203,2.3,5.8,91,0.00,,,0.65,VWS V14.01,2013-06-01 21:58:00,
2013-06-01 17:00:00,70.6,67.8,29.86,SSW,203,2.3,5.8,91,0.00,,,0.65,VWS V14.01,2013-06-01 22:00:00,
2013-06-01 17:13:00,71.0,68.6,29.84,ESE,120,1.1,3.4,92,0.00,,,0.65,VWS V14.01,2013-06-01 22:13:00,
2013-06-01 17:15:00,71.0,68.6,29.84,ESE,120,1.1,3.4,92,0.00,,,0.65,VWS V14.01,2013-06-01 22:15:00,
2013-06-01 17:28:00,71.0,68.9,29.78,ENE,74,2.3,3.4,93,0.00,,,0.65,VWS V14.01,2013-06-01 22:28:00,
2013-06-01 17:30:00,71.0,68.9,29.78,ENE,74,2.3,3.4,93,0.00,,,0.65,VWS V14.01,2013-06-01 22:30:00,
2013-06-01 17:43:00,71.2,69.1,29.84,WSW,238,1.1,6.9,93,0.00,,,0.65,VWS V14.01,2013-06-01 22:43:00,
2013-06-01 17:45:00,71.2,69.1,29.84,WSW,238,1.1,6.9,93,0.00,,,0.65,VWS V14.01,2013-06-01 22:45:00,
2013-06-01 17:58:00,70.3,68.2,29.85,SW,226,0.0,8.1,93,0.00,,,0.65,VWS V14.01,2013-06-01 22:58:00,
2013-06-01 18:00:00,70.3,68.2,29.85,SW,226,0.0,8.1,93,0.00,,,0.65,VWS V14.01,2013-06-01 23:00:00,
2013-06-01 18:13:00,69.4,67.0,29.84,South,173,0.0,4.6,92,0.00,,,0.65,VWS V14.01,2013-06-01 23:13:00,
2013-06-01 18:15:00,69.4,67.0,29.84,South,173,0.0,4.6,92,0.00,,,0.65,VWS V14.01,2013-06-01 23:15:00,
2013-06-01 18:28:00,69.6,67.5,29.88,WSW,250,0.0,2.3,93,0.00,,,0.65,VWS V14.01,2013-06-01 23:28:00,
2013-06-01 18:30:00,69.6,67.5,29.88,WSW,250,0.0,2.3,93,0.00,,,0.65,VWS V14.01,2013-06-01 23:30:00,
2013-06-01 18:43:00,69.5,67.1,29.86,West,274,0.0,3.4,92,0.00,,,0.65,VWS V14.01,2013-06-01 23:43:00,
2013-06-01 18:45:00,69.5,67.1,29.86,West,274,0.0,3.4,92,0.00,,,0.65,VWS V14.01,2013-06-01 23:45:00,
2013-06-01 18:58:00,69.3,66.6,29.88,SW,229,1.1,2.3,91,0.00,,,0.65,VWS V14.01,2013-06-01 23:58:00,
2013-06-01 19:00:00,69.3,66.6,29.88,SW,229,1.1,2.3,91,0.00,,,0.65,VWS V14.01,2013-06-02 00:00:00,
2013-06-01 19:13:00,69.5,66.8,29.88,SE,127,0.0,4.6,91,0.00,,,0.65,VWS V14.01,2013-06-02 00:13:00,
2013-06-01 19:15:00,69.5,66.8,29.88,SE,127,0.0,4.6,91,0.00,,,0.65,VWS V14.01,2013-06-02 00:15:00,
2013-06-01 19:28:00,69.2,66.5,29.86,WSW,238,0.0,2.3,91,0.00,,,0.65,VWS V14.01,2013-06-02 00:28:00,
2013-06-01 19:30:00,69.2,66.5,29.86,WSW,238,0.0,2.3,91,0.00,,,0.65,VWS V14.01,2013-06-02 00:30:00,
2013-06-01 19:43:00,68.6,66.5,29.89,SSE,152,0.0,1.1,93,0.00,,,0.65,VWS V14.01,2013-06-02 00:43:00,
2013-06-01 19:45:00,68.6,66.5,29.89,SSE,152,0.0,1.1,93,0.00,,,0.65,VWS V14.01,2013-06-02 00:45:00,
2013-06-01 19:58:00,68.3,66.2,29.89,South,191,0.0,1.1,93,0.00,,,0.65,VWS V14.01,2013-06-02 00:58:00,
2013-06-01 20:00:00,68.3,66.2,29.89,South,191,0.0,1.1,93,0.00,,,0.65,VWS V14.01,2013-06-02 01:00:00,
2013-06-01 20:13:00,68.3,66.2,29.89,WSW,246,0.0,2.3,93,0.00,,,0.65,VWS V14.01,2013-06-02 01:13:00,
2013-06-01 20:15:00,68.3,66.2,29.89,WSW,246,0.0,2.3,93,0.00,,,0.65,VWS V14.01,2013-06-02 01:15:00,
2013-06-01 20:28:00,68.1,66.3,29.89,SSW,194,0.0,2.3,94,0.00,,,0.65,VWS V14.01,2013-06-02 01:28:00,
2013-06-01 20:30:00,68.1,66.3,29.89,SSW,194,0.0,2.3,94,0.00,,,0.65,VWS V14.01,2013-06-02 01:30:00,
2013-06-01 20:43:00,68.3,66.5,29.89,South,182,0.0,2.3,94,0.00,,,0.65,VWS V14.01,2013-06-02 01:43:00,
2013-06-01 20:45:00,68.3,66.5,29.89,South,182,0.0,2.3,94,0.00,,,0.65,VWS V14.01,2013-06-02 01:45:00,
2013-06-01 20:58:00,68.1,66.3,29.90,South,181,0.0,1.1,94,0.00,,,0.65,VWS V14.01,2013-06-02 01:58:00,
2013-06-01 21:00:00,68.1,66.3,29.90,South,181,0.0,1.1,94,0.00,,,0.65,VWS V14.01,2013-06-02 02:00:00,
2013-06-01 21:13:00,67.8,66.3,29.91,South,181,0.0,0.0,95,0.00,,,0.65,VWS V14.01,2013-06-02 02:13:00,
2013-06-01 21:15:00,67.8,66.3,29.91,South,181,0.0,0.0,95,0.00,,,0.65,VWS V14.01,2013-06-02 02:15:00,
2013-06-01 21:28:00,67.7,66.2,29.92,South,179,0.0,0.0,95,0.00,,,0.65,VWS V14.01,2013-06-02 02:28:00,
2013-06-01 21:30:00,67.7,66.2,29.92,South,179,0.0,0.0,95,0.00,,,0.65,VWS V14.01,2013-06-02 02:30:00,
2013-06-01 21:43:00,67.5,66.3,29.92,South,174,0.0,0.0,96,0.00,,,0.65,VWS V14.01,2013-06-02 02:43:00,
2013-06-01 21:45:00,67.5,66.3,29.92,South,174,0.0,0.0,96,0.00,,,0.65,VWS V14.01,2013-06-02 02:45:00,
2013-06-01 21:58:00,67.3,66.1,29.93,South,183,0.0,0.0,96,0.00,,,0.65,VWS V14.01,2013-06-02 02:58:00,
2013-06-01 22:00:00,67.3,66.1,29.93,South,183,0.0,0.0,96,0.00,,,0.65,VWS V14.01,2013-06-02 03:00:00,
2013-06-01 22:13:00,67.3,66.1,29.92,ESE,102,0.0,1.1,96,0.00,,,0.65,VWS V14.01,2013-06-02 03:13:00,
2013-06-01 22:15:00,67.3,66.1,29.92,ESE,102,0.0,1.1,96,0.00,,,0.65,VWS V14.01,2013-06-02 03:15:00,
2013-06-01 22:28:00,67.3,66.1,29.92,East,94,0.0,2.3,96,0.00,,,0.65,VWS V14.01,2013-06-02 03:28:00,
2013-06-01 22:30:00,67.3,66.1,29.92,East,94,0.0,2.3,96,0.00,,,0.65,VWS V14.01,2013-06-02 03:30:00,
2013-06-01 22:43:00,67.2,66.0,29.93,ESE,103,0.0,0.0,96,0.00,,,0.65,VWS V14.01,2013-06-02 03:43:00,
2013-06-01 22:45:00,67.2,66.0,29.93,ESE,103,0.0,0.0,96,0.00,,,0.65,VWS V14.01,2013-06-02 03:45:00,
2013-06-01 22:58:00,67.2,66.0,29.92,ESE,103,0.0,0.0,96,0.00,,,0.65,VWS V14.01,2013-06-02 03:58:00,
2013-06-01 23:00:00,67.2,66.0,29.92,ESE,103,0.0,0.0,96,0.00,,,0.65,VWS V14.01,2013-06-02 04:00:00,
2013-06-01 23:13:00,67.2,66.0,29.92,ESE,103,0.0,0.0,96,0.00,,,0.65,VWS V14.01,2013-06-02 04:13:00,
2013-06-01 23:15:00,67.2,66.0,29.92,ESE,103,0.0,0.0,96,0.00,,,0.65,VWS V14.01,2013-06-02 04:15:00,
2013-06-01 23:28:00,67.2,66.0,29.93,ESE,103,0.0,0.0,96,0.00,,,0.65,VWS V14.01,2013-06-02 04:28:00,
2013-06-01 23:30:00,67.2,66.0,29.93,ESE,103,0.0,0.0,96,0.00,,,0.65,VWS V14.01,2013-06-02 04:30:00,
2013-06-01 23:43:00,67.4,66.2,29.93,ENE,74,0.0,2.3,96,0.00,,,0.65,VWS V14.01,2013-06-02 04:43:00,
2013-06-01 23:45:00,67.4,66.2,29.93,ENE,74,0.0,2.3,96,0.00,,,0.65,VWS V14.01,2013-06-02 04:45:00,
2013-06-01 23:58:00,67.4,66.2,29.92,ENE,74,0.0,1.1,96,0.00,,,0.65,VWS V14.01,2013-06-02 04:58:00,